Regional Weather Roundup
Issued by NWS

Home | Current Version | Previous Version | Graphics & Text | Print | Product List | Glossary On
Versions: 1 2 3 4 5 6 7 8 9 10 11 12 13 14 15 16 17 18 19 20 21 22 23 24 25 26 27 28
000
ASUS45 KTFX 222310
RWRMT
MONTANA REGIONAL WEATHER ROUNDUP
NATIONAL WEATHER SERVICE GREAT FALLS MT
500 PM MDT THU JUN 22 2017

NOTE: "FAIR" INDICATES FEW OR NO CLOUDS BELOW 12000 FEET WITH NO
SIGNIFICANT WEATHER AND/OR OBSTRUCTIONS TO VISIBILITY.

MTZ001>007-043-230000-
WEST OF THE DIVIDE

CITY           SKY/WX    TMP DP  RH WIND       PRES   REMARKS
KALISPELL      PTSUNNY   72  28  19 VRB6      30.15S
MISSOULA       MOSUNNY   72  33  24 N17G24    30.15S
BUTTE          SUNNY     66  22  18 NW15G28   30.17R
MULLAN PASS    MOSUNNY   57  27  31 MISG      30.28S
DEER LODGE       N/A     64  27  24 NW15G22   30.19S
EUREKA           N/A     72  30  21 MISG      30.16S
HAMILTON         N/A     70  27  19 NW14G21   30.15R
LIBBY            N/A     73  27  17 N9        30.14F
$$

MTZ008-052>055-230000-
SOUTHWEST MONTANA

CITY           SKY/WX    TMP DP  RH WIND       PRES   REMARKS
BOZEMAN        PTSUNNY   68  25  19 N13G21    30.12R
DILLON         SUNNY     70  31  23 NW14      30.11S
W YELLOWSTONE  SUNNY     66  16  14 NW12G18   30.16S
ENNIS          MOSUNNY   70  28  21 N12G22    30.17R
THREE FORKS      N/A     69  28  21 N14       30.09R
$$

MTZ009-010-012-014-046-048-049-054-230000-
EAST SLOPES AND CENTRAL MONTANA

CITY           SKY/WX    TMP DP  RH WIND       PRES   REMARKS
CUT BANK       CLOUDY    58  38  47 N20       30.21S
GREAT FALLS    SUNNY     62  34  35 N21G29    30.20R
MALMSTROM AFB  MOSUNNY   61  33  35 N21G26    30.21R
HELENA         CLOUDY    68  31  25 N14       30.15R
CHOTEAU          N/A     61  36  39 N17G24    30.23R
$$

MTZ011-013-016-021-045-047-050-051-230000-
NORTH CENTRAL MONTANA

CITY           SKY/WX    TMP DP  RH WIND       PRES   REMARKS
HAVRE          CLOUDY    58  43  57 W17G28    30.17S
LEWISTOWN      SUNNY     60  35  39 NW20G35   30.16R
N BAR RANCH      N/A     63  32  31 NW25G35   30.16R
CHINOOK          N/A     59  43  55 W17G25    30.12S
FORT BENTON      N/A     61  37  41 MISG      30.21R
$$

MTZ017>020-022>027-061-062-230000-
NORTHEAST MONTANA

CITY           SKY/WX    TMP DP  RH WIND       PRES   REMARKS
GLASGOW        LGT RAIN  53  47  79 W25G40    30.02R
JORDAN           N/A     65  34  31 NW30G46   30.04R
SIDNEY         SUNNY     67  37  33 NW37G48   29.90R
WOLF POINT     CLOUDY    61  45  55 W29G41    29.98R
MALTA          CLOUDY    57  45  62 NW24G35   30.08R
PLENTYWOOD       N/A     57  48  72 NW26G33   29.87R
POPLAR           N/A     61  45  55 W28G38    29.94R
$$

MTZ028>42-056>058-230000-
SOUTHCENTRAL AND SOUTHEAST MONTANA

CITY           SKY/WX    TMP DP  RH WIND       PRES   REMARKS
BAKER          CLOUDY    69  29  22 NW23G33   29.95S
BILLINGS       MOSUNNY   72  30  21 N20G35    30.05R
LIVINGSTON     MOSUNNY   70  29  21 N22G29    30.10R
MILES CITY     PTSUNNY   76  24  14 NW21G40   29.96R
BIG TIMBER     CLOUDY    63  32  31 NE14      30.13S
FORSYTH          N/A     72  27  18 NW16G33   29.99R
ROUNDUP          N/A     68  26  20 W23       29.99R
$$

REGIONAL REPORTS...DAKOTAS

CITY           SKY/WX    TMP DP  RH WIND       PRES   REMARKS
WILLISTON      PTSUNNY   64  44  48 W30G41    29.87R
MINOT          CLOUDY    69  37  30 W31G44    29.75S
DICKINSON      PTSUNNY   71  23  16 NW28G40   29.85F
BEACH            N/A     72  27  18 NW31G45   29.94R
CROSBY         CLOUDY    57  48  72 W21G33    29.83R
TIOGA          PTSUNNY   59  43  55 W32G43    29.85R
WATFORD CITY     N/A     66  36  32 W31G45    29.85R
BISMARCK       PTSUNNY   75  31  19 NW20G35   29.81R
GRAND FORKS    PTSUNNY   75  39  27 W23G31    29.67F
FARGO          MOSUNNY   77  37  23 W21G36    29.71S
BUFFALO SD       N/A     72  32  23 NW29G38   29.90R
RAPID CITY     MOSUNNY   78  36  21 NW18G30   29.91F
$$

REGIONAL REPORTS...WYOMING/IDAHO/WASHINGTON

CITY           SKY/WX    TMP DP  RH WIND       PRES   REMARKS
GILLETTE       PTSUNNY   69  36  29 N14       30.00R
SHERIDAN       MOSUNNY   73  32  22 N23       30.02R
BUFFALO WY     MOSUNNY   66  33  29 N22       30.06R
CODY           SUNNY     70  25  18 N21G28    30.07R
YELLOWSTONE LA   N/A     63  21  20 W8G18     30.21R
IDAHO FALLS    SUNNY     76  38  25 S14G22    30.07F
SALMON         SUNNY     73  28  19 W9G18     30.08F
BOISE          SUNNY     81  28  14 W20G26    30.07F
SPOKANE        MOSUNNY   75  27  17 VRB6      30.19F
$$

REGIONAL REPORTS...ALBERTA

CITY           SKY/WX    TMP DP  RH WIND       PRES   REMARKS
EDMONTON       MOSUNNY   61  37  41 N14G24    30.16R
CALGARY        MOSUNNY   61  32  33 N22G29    30.19S
LETHBRIDGE     PTSUNNY   61  39  44 N10G22    30.20R
MEDICINE HAT   CLOUDY    57  41  54 NW17G28   30.15R
WATERTON GATE    N/A     63  36  36 NE5         N/A
MILK RIVER       N/A     59  41  51 N17G25      N/A
$$

REGIONAL REPORTS...SASKATCHEWAN

CITY           SKY/WX    TMP DP  RH WIND       PRES   REMARKS
SWIFT CURRENT  CLOUDY    50  46  87 NW25G35   30.01R
REGINA         LGT RAIN  57  52  82 NW28G40   29.82R
SASKATOON      PTSUNNY   57  45  62 NW24G33   29.93R
VAL MARIE        N/A     54  45  71 NW26G35     N/A
ROCKGLEN         N/A     50  48  93 NW22G31     N/A
ASSINIBOIA       N/A     61  37  41 NW21G29     N/A
$$




USA.gov is the U.S. government's official web portal to all federal, state and local government web resources and services.